RYR63AY LEPA-LEZL

Flight info

Callsign RYR63AY
Flight time 1h 22m
Altitude 37000
Route BAVER DCT GERVU DCT ALT DCT RESTU DCT TOSGA DCT ROLAS DCT UNTOS DCT RIXUR DCT MGA M744 MAR
Aircraft B738/M-SDE3FGILRWY/SB1

Departure

Time 2026-04-26 19:10
Airport Palma de Mallorca Airport (LEPA)

Arrival

Time 2026-04-26 20:33
Airport Seville Airport (LEZL)
Time Latitude Longitude Altitude Speed Heading
2026-04-26 18:40 39.55148 2.72668 29 ft 0 kts 194°
2026-04-26 19:05 39.55125 2.72662 29 ft 8 kts 187°
2026-04-26 19:05 39.55101 2.72719 29 ft 10 kts 66°
2026-04-26 19:05 39.55139 2.72803 29 ft 12 kts 59°
2026-04-26 19:06 39.55197 2.72925 29 ft 19 kts 58°
2026-04-26 19:06 39.55266 2.73068 29 ft 18 kts 58°
2026-04-26 19:06 39.55332 2.73208 29 ft 18 kts 58°
2026-04-26 19:06 39.55398 2.73346 29 ft 18 kts 58°
2026-04-26 19:07 39.55463 2.73481 29 ft 18 kts 58°
2026-04-26 19:07 39.55529 2.73571 29 ft 12 kts 344°
2026-04-26 19:07 39.55600 2.73519 29 ft 12 kts 328°
2026-04-26 19:07 39.55669 2.73530 29 ft 11 kts 51°
2026-04-26 19:08 39.55718 2.73633 29 ft 19 kts 59°
2026-04-26 19:08 39.55792 2.73787 29 ft 20 kts 58°
2026-04-26 19:08 39.55865 2.73943 29 ft 21 kts 58°
2026-04-26 19:08 39.55940 2.74101 29 ft 20 kts 58°
2026-04-26 19:09 39.56026 2.74243 29 ft 20 kts 35°
2026-04-26 19:09 39.56142 2.74343 29 ft 20 kts 33°
2026-04-26 19:09 39.56238 2.74295 29 ft 20 kts 266°
2026-04-26 19:09 39.56128 2.74048 29 ft 60 kts 238°
2026-04-26 19:10 39.55801 2.73360 29 ft 120 kts 238°
2026-04-26 19:10 39.55282 2.72261 124 ft 157 kts 239°
2026-04-26 19:10 39.54702 2.71012 625 ft 167 kts 238°
2026-04-26 19:10 39.54072 2.69733 1127 ft 175 kts 236°
2026-04-26 19:11 39.53357 2.68328 1456 ft 198 kts 236°
2026-04-26 19:11 39.52559 2.66761 1796 ft 217 kts 236°
2026-04-26 19:11 39.51707 2.65090 2209 ft 227 kts 236°
2026-04-26 19:11 39.50843 2.63395 2766 ft 229 kts 236°
2026-04-26 19:12 39.49969 2.61680 3385 ft 229 kts 235°
2026-04-26 19:12 39.49081 2.59937 4002 ft 232 kts 235°
2026-04-26 19:12 39.48194 2.58199 4742 ft 232 kts 235°
2026-04-26 19:12 39.47302 2.56453 5408 ft 234 kts 235°
2026-04-26 19:13 39.46397 2.54682 6088 ft 236 kts 235°
2026-04-26 19:13 39.45489 2.52905 6774 ft 238 kts 236°
2026-04-26 19:13 39.44545 2.51034 7070 ft 261 kts 236°
2026-04-26 19:13 39.43513 2.48978 7373 ft 281 kts 236°
2026-04-26 19:14 39.42437 2.46831 7988 ft 288 kts 236°
2026-04-26 19:14 39.41344 2.44649 8752 ft 290 kts 236°
2026-04-26 19:14 39.40245 2.42458 9559 ft 292 kts 236°
2026-04-26 19:14 39.39870 2.41710 9825 ft 293 kts 236°
2026-04-26 19:15 39.37963 2.37915 10539 ft 320 kts 236°
2026-04-26 19:15 39.36725 2.35456 10846 ft 338 kts 236°
2026-04-26 19:15 39.35428 2.32880 11460 ft 345 kts 236°
2026-04-26 19:15 39.34114 2.30269 12200 ft 348 kts 236°
2026-04-26 19:16 39.33239 2.28532 12679 ft 351 kts 236°
2026-04-26 19:16 39.32867 2.27796 12894 ft 352 kts 236°
2026-04-26 19:16 39.31569 2.25223 13592 ft 357 kts 236°
2026-04-26 19:16 39.30205 2.22521 14324 ft 361 kts 236°
2026-04-26 19:17 39.28828 2.19796 15040 ft 364 kts 236°
2026-04-26 19:17 39.27434 2.17040 15766 ft 368 kts 236°
2026-04-26 19:17 39.26025 2.14257 16473 ft 372 kts 236°
2026-04-26 19:17 39.24598 2.11441 17169 ft 377 kts 236°
2026-04-26 19:18 39.23157 2.08600 17869 ft 381 kts 235°
2026-04-26 19:18 39.21696 2.05722 18549 ft 385 kts 235°
2026-04-26 19:18 39.20242 2.02859 19156 ft 389 kts 235°
2026-04-26 19:18 39.18755 1.99933 19793 ft 391 kts 236°
2026-04-26 19:19 39.17259 1.96994 20425 ft 394 kts 236°
2026-04-26 19:19 39.15767 1.94008 21035 ft 398 kts 239°
2026-04-26 19:19 39.14776 1.90673 21609 ft 402 kts 254°
2026-04-26 19:19 39.14061 1.87173 22193 ft 406 kts 255°
2026-04-26 19:20 39.13347 1.83641 22756 ft 410 kts 255°
2026-04-26 19:20 39.13103 1.82438 22956 ft 411 kts 255°
2026-04-26 19:20 39.12642 1.80188 23328 ft 413 kts 255°
2026-04-26 19:21 39.12077 1.77460 23762 ft 415 kts 254°
2026-04-26 19:21 39.11322 1.73863 24243 ft 417 kts 254°
2026-04-26 19:22 39.10555 1.70250 24750 ft 419 kts 254°
2026-04-26 19:22 39.09777 1.66612 25235 ft 421 kts 254°
2026-04-26 19:22 39.08996 1.62974 25691 ft 424 kts 254°
2026-04-26 19:22 39.08206 1.59307 26122 ft 427 kts 254°
2026-04-26 19:23 39.07408 1.55611 26601 ft 429 kts 254°
2026-04-26 19:23 39.06606 1.51906 27107 ft 430 kts 254°
2026-04-26 19:23 39.05800 1.48182 27484 ft 434 kts 254°
2026-04-26 19:23 39.04975 1.44380 27875 ft 437 kts 254°
2026-04-26 19:24 39.04167 1.40658 28333 ft 439 kts 254°
2026-04-26 19:24 39.03343 1.36872 28746 ft 441 kts 254°
2026-04-26 19:24 39.01673 1.29218 29504 ft 446 kts 254°
2026-04-26 19:25 39.00833 1.25376 29912 ft 448 kts 254°
2026-04-26 19:25 39.00271 1.22812 30145 ft 450 kts 253°
2026-04-26 19:25 38.99131 1.17618 30555 ft 453 kts 254°
2026-04-26 19:25 38.98275 1.13725 30989 ft 451 kts 254°
2026-04-26 19:26 38.97423 1.09855 31462 ft 449 kts 254°
2026-04-26 19:26 38.97250 1.09071 31556 ft 448 kts 254°
2026-04-26 19:26 38.96562 1.05951 31957 ft 446 kts 254°
2026-04-26 19:26 38.95717 1.02128 32448 ft 443 kts 255°
2026-04-26 19:27 38.94877 0.98337 32891 ft 441 kts 255°
2026-04-26 19:27 38.94037 0.94550 33296 ft 440 kts 255°
2026-04-26 19:27 38.93201 0.90785 33704 ft 439 kts 255°
2026-04-26 19:27 38.92365 0.87025 34130 ft 437 kts 255°
2026-04-26 19:28 38.91531 0.83283 34472 ft 436 kts 255°
2026-04-26 19:28 38.90696 0.79545 34747 ft 436 kts 255°
2026-04-26 19:28 38.89860 0.75799 35006 ft 437 kts 255°
2026-04-26 19:28 38.89020 0.72046 35275 ft 437 kts 255°
2026-04-26 19:29 38.88181 0.68308 35589 ft 436 kts 255°
2026-04-26 19:29 38.87225 0.64614 35887 ft 436 kts 250°
2026-04-26 19:29 38.86082 0.61011 36150 ft 436 kts 248°
2026-04-26 19:29 38.84908 0.57472 36422 ft 436 kts 248°
2026-04-26 19:30 38.83732 0.53839 36699 ft 436 kts 249°
2026-04-26 19:30 38.82607 0.50277 36958 ft 436 kts 249°
2026-04-26 19:30 38.81307 0.46766 37129 ft 439 kts 240°
2026-04-26 19:30 38.80208 0.44519 37134 ft 442 kts 238°
2026-04-26 19:31 38.77635 0.39598 37137 ft 443 kts 237°
2026-04-26 19:31 38.74575 0.33847 37123 ft 439 kts 237°
2026-04-26 19:32 38.71178 0.27388 37132 ft 436 kts 237°
2026-04-26 19:32 38.67817 0.20941 37135 ft 435 kts 237°
2026-04-26 19:33 38.64468 0.14505 37129 ft 434 kts 238°
2026-04-26 19:33 38.61118 0.08080 37134 ft 434 kts 238°
2026-04-26 19:34 38.57766 0.01664 37134 ft 434 kts 238°
2026-04-26 19:34 38.54401 -0.04760 37136 ft 436 kts 237°
2026-04-26 19:35 38.51019 -0.11206 37142 ft 437 kts 237°
2026-04-26 19:35 38.47623 -0.17664 37137 ft 439 kts 237°
2026-04-26 19:36 38.45918 -0.20904 37134 ft 440 kts 237°
2026-04-26 19:36 38.42540 -0.27309 37138 ft 441 kts 237°
2026-04-26 19:37 38.39105 -0.33810 37136 ft 443 kts 237°
2026-04-26 19:37 38.35661 -0.40316 37154 ft 443 kts 237°
2026-04-26 19:38 38.32207 -0.46827 37158 ft 443 kts 237°
2026-04-26 19:38 38.28778 -0.53281 37157 ft 443 kts 237°
2026-04-26 19:39 38.25590 -0.59963 37159 ft 440 kts 246°
2026-04-26 19:39 38.23077 -0.67056 37155 ft 439 kts 248°
2026-04-26 19:40 38.20601 -0.74143 37152 ft 439 kts 247°
2026-04-26 19:40 38.18086 -0.81197 37143 ft 438 kts 247°
2026-04-26 19:41 38.16682 -0.85091 37148 ft 437 kts 247°
2026-04-26 19:41 38.14851 -0.90146 37144 ft 436 kts 247°
2026-04-26 19:42 38.11882 -0.98322 37141 ft 435 kts 247°
2026-04-26 19:42 38.09346 -1.05292 37145 ft 435 kts 247°
2026-04-26 19:43 38.06805 -1.12261 37138 ft 435 kts 247°
2026-04-26 19:43 38.04263 -1.19214 37147 ft 434 kts 247°
2026-04-26 19:44 38.01720 -1.26158 37138 ft 434 kts 246°
2026-04-26 19:44 37.99175 -1.33092 37138 ft 433 kts 246°
2026-04-26 19:45 37.96626 -1.40017 37134 ft 433 kts 246°
2026-04-26 19:45 37.94074 -1.46939 37131 ft 433 kts 246°
2026-04-26 19:46 37.92713 -1.50627 37139 ft 433 kts 246°
2026-04-26 19:46 37.90314 -1.57107 37141 ft 433 kts 246°
2026-04-26 19:47 37.88177 -1.62843 37144 ft 433 kts 246°
2026-04-26 19:47 37.85164 -1.70905 37133 ft 434 kts 246°
2026-04-26 19:48 37.82583 -1.77799 37148 ft 433 kts 246°
2026-04-26 19:48 37.80000 -1.84687 37145 ft 433 kts 246°
2026-04-26 19:49 37.77413 -1.91570 37139 ft 434 kts 246°
2026-04-26 19:49 37.74821 -1.98453 37145 ft 433 kts 246°
2026-04-26 19:50 37.72227 -2.05324 37152 ft 434 kts 246°
2026-04-26 19:50 37.69624 -2.12204 37134 ft 434 kts 246°
2026-04-26 19:51 37.68290 -2.15723 37137 ft 434 kts 246°
2026-04-26 19:51 37.65969 -2.21841 37140 ft 433 kts 246°
2026-04-26 19:52 37.63351 -2.28725 37146 ft 432 kts 246°
2026-04-26 19:52 37.60746 -2.35560 37147 ft 432 kts 246°
2026-04-26 19:53 37.58156 -2.42344 37148 ft 432 kts 246°
2026-04-26 19:53 37.55548 -2.49163 37137 ft 432 kts 246°
2026-04-26 19:54 37.52934 -2.55986 37146 ft 432 kts 246°
2026-04-26 19:54 37.50317 -2.62800 37129 ft 432 kts 246°
2026-04-26 19:55 37.47694 -2.69616 37132 ft 432 kts 246°
2026-04-26 19:55 37.45069 -2.76423 37119 ft 432 kts 246°
2026-04-26 19:56 37.43704 -2.79959 37114 ft 432 kts 246°
2026-04-26 19:56 37.41186 -2.86466 37133 ft 431 kts 246°
2026-04-26 19:57 37.38555 -2.93256 37114 ft 431 kts 246°
2026-04-26 19:57 37.35926 -3.00033 37125 ft 431 kts 246°
2026-04-26 19:58 37.33296 -3.06799 37112 ft 431 kts 246°
2026-04-26 19:58 37.30664 -3.13557 37113 ft 430 kts 246°
2026-04-26 19:59 37.28031 -3.20305 37121 ft 430 kts 246°
2026-04-26 19:59 37.25396 -3.27040 37106 ft 429 kts 245°
2026-04-26 20:00 37.22755 -3.33756 37110 ft 429 kts 245°
2026-04-26 20:00 37.20106 -3.40465 37102 ft 429 kts 245°
2026-04-26 20:01 37.18788 -3.43798 37101 ft 429 kts 245°
2026-04-26 20:01 37.16215 -3.50300 37087 ft 429 kts 245°
2026-04-26 20:02 37.14883 -3.53663 36765 ft 430 kts 245°
2026-04-26 20:02 37.13564 -3.56991 36427 ft 424 kts 245°
2026-04-26 20:02 37.12256 -3.60284 36067 ft 420 kts 246°
2026-04-26 20:02 37.11835 -3.61342 35948 ft 419 kts 246°
2026-04-26 20:03 37.09671 -3.66779 35268 ft 414 kts 246°
2026-04-26 20:03 37.08388 -3.69998 34878 ft 412 kts 246°
2026-04-26 20:03 37.07108 -3.73201 34495 ft 410 kts 246°
2026-04-26 20:03 37.05837 -3.76383 34101 ft 408 kts 246°
2026-04-26 20:04 37.04571 -3.79551 33657 ft 406 kts 246°
2026-04-26 20:04 37.03311 -3.82702 33251 ft 403 kts 246°
2026-04-26 20:04 37.02062 -3.85821 32856 ft 400 kts 246°
2026-04-26 20:04 37.00818 -3.88923 32485 ft 397 kts 246°
2026-04-26 20:05 36.99599 -3.91961 32127 ft 394 kts 246°
2026-04-26 20:05 36.98373 -3.95015 31766 ft 392 kts 246°
2026-04-26 20:05 36.97153 -3.98050 31413 ft 389 kts 246°
2026-04-26 20:05 36.95941 -4.01063 31056 ft 387 kts 245°
2026-04-26 20:06 36.95126 -4.03089 30813 ft 385 kts 245°
2026-04-26 20:06 36.94822 -4.03844 30729 ft 385 kts 245°
2026-04-26 20:06 36.93703 -4.06620 30401 ft 383 kts 245°
2026-04-26 20:06 36.92506 -4.09587 30029 ft 381 kts 245°
2026-04-26 20:07 36.91314 -4.12540 29618 ft 379 kts 245°
2026-04-26 20:07 36.90136 -4.15455 29249 ft 375 kts 245°
2026-04-26 20:07 36.89342 -4.17418 28972 ft 373 kts 245°
2026-04-26 20:07 36.87801 -4.21226 28496 ft 369 kts 245°
2026-04-26 20:08 36.87023 -4.23148 28243 ft 367 kts 245°
2026-04-26 20:08 36.85888 -4.25949 27899 ft 365 kts 245°
2026-04-26 20:08 36.84746 -4.28766 27534 ft 362 kts 245°
2026-04-26 20:08 36.83609 -4.31563 27167 ft 360 kts 245°
2026-04-26 20:09 36.82551 -4.34376 26792 ft 357 kts 255°
2026-04-26 20:09 36.82267 -4.37399 26483 ft 348 kts 276°
2026-04-26 20:09 36.82805 -4.40375 25954 ft 348 kts 294°
2026-04-26 20:09 36.83839 -4.43056 25552 ft 348 kts 298°
2026-04-26 20:10 36.84978 -4.45705 25222 ft 345 kts 300°
2026-04-26 20:10 36.86134 -4.48331 24861 ft 344 kts 300°
2026-04-26 20:10 36.87282 -4.50950 24519 ft 343 kts 299°
2026-04-26 20:10 36.88418 -4.53566 24169 ft 342 kts 299°
2026-04-26 20:11 36.89544 -4.56182 23809 ft 342 kts 299°
2026-04-26 20:11 36.89794 -4.56766 23726 ft 342 kts 299°
2026-04-26 20:11 36.90765 -4.59043 23387 ft 341 kts 298°
2026-04-26 20:12 36.92980 -4.64261 22643 ft 338 kts 298°
2026-04-26 20:12 36.94077 -4.66854 22286 ft 336 kts 298°
2026-04-26 20:12 36.95167 -4.69432 21936 ft 334 kts 298°
2026-04-26 20:12 36.96238 -4.71970 21611 ft 333 kts 298°
2026-04-26 20:13 36.97316 -4.74526 21261 ft 331 kts 298°
2026-04-26 20:13 36.98385 -4.77063 20928 ft 329 kts 298°
2026-04-26 20:13 36.99451 -4.79594 20600 ft 328 kts 298°
2026-04-26 20:13 37.00510 -4.82111 20267 ft 327 kts 298°
2026-04-26 20:14 37.01566 -4.84623 19937 ft 325 kts 298°
2026-04-26 20:14 37.02618 -4.87127 19607 ft 324 kts 298°
2026-04-26 20:14 37.03665 -4.89620 19270 ft 324 kts 298°
2026-04-26 20:14 37.04711 -4.92113 18933 ft 323 kts 297°
2026-04-26 20:15 37.05688 -4.94642 18547 ft 324 kts 289°
2026-04-26 20:15 37.06279 -4.97392 18008 ft 329 kts 282°
2026-04-26 20:15 37.06752 -5.00196 17591 ft 330 kts 281°
2026-04-26 20:15 37.07211 -5.02997 17237 ft 327 kts 281°
2026-04-26 20:16 37.07674 -5.05782 16894 ft 325 kts 281°
2026-04-26 20:16 37.07758 -5.06282 16834 ft 325 kts 281°
2026-04-26 20:16 37.08122 -5.08420 16577 ft 323 kts 282°
2026-04-26 20:16 37.08596 -5.11162 16248 ft 322 kts 282°
2026-04-26 20:17 37.09074 -5.13892 15927 ft 320 kts 282°
2026-04-26 20:17 37.09551 -5.16604 15595 ft 318 kts 282°
2026-04-26 20:17 37.10028 -5.19305 15265 ft 317 kts 282°
2026-04-26 20:17 37.10343 -5.21082 15053 ft 316 kts 282°
2026-04-26 20:18 37.10977 -5.24668 14618 ft 314 kts 282°
2026-04-26 20:18 37.11449 -5.27333 14299 ft 313 kts 282°
2026-04-26 20:18 37.11917 -5.29986 13973 ft 312 kts 282°
2026-04-26 20:18 37.12385 -5.32635 13618 ft 311 kts 281°
2026-04-26 20:19 37.12851 -5.35282 13267 ft 310 kts 281°
2026-04-26 20:19 37.13314 -5.37912 12920 ft 309 kts 281°
2026-04-26 20:19 37.13776 -5.40540 12597 ft 308 kts 282°
2026-04-26 20:19 37.14235 -5.43157 12273 ft 307 kts 282°
2026-04-26 20:20 37.14692 -5.45759 11952 ft 305 kts 282°
2026-04-26 20:20 37.15146 -5.48355 11635 ft 304 kts 282°
2026-04-26 20:20 37.15592 -5.50902 11326 ft 303 kts 282°
2026-04-26 20:20 37.16048 -5.53512 11013 ft 302 kts 282°
2026-04-26 20:21 37.16495 -5.56074 10698 ft 301 kts 282°
2026-04-26 20:21 37.16558 -5.56438 10657 ft 301 kts 282°
2026-04-26 20:21 37.16916 -5.58496 10408 ft 300 kts 282°
2026-04-26 20:21 37.17360 -5.61047 10182 ft 296 kts 282°
2026-04-26 20:22 37.17791 -5.63544 9949 ft 293 kts 282°
2026-04-26 20:22 37.18215 -5.66043 9632 ft 293 kts 282°
2026-04-26 20:22 37.18637 -5.68533 9325 ft 291 kts 282°
2026-04-26 20:22 37.19056 -5.71012 9021 ft 290 kts 282°
2026-04-26 20:23 37.19474 -5.73485 8725 ft 289 kts 282°
2026-04-26 20:23 37.19890 -5.75953 8419 ft 289 kts 282°
2026-04-26 20:23 37.20305 -5.78415 8132 ft 288 kts 282°
2026-04-26 20:23 37.20718 -5.80870 7839 ft 287 kts 282°
2026-04-26 20:24 37.21130 -5.83319 7547 ft 287 kts 282°
2026-04-26 20:24 37.21541 -5.85765 7255 ft 286 kts 282°
2026-04-26 20:24 37.21951 -5.88212 6943 ft 287 kts 282°
2026-04-26 20:24 37.22361 -5.90659 6653 ft 286 kts 282°
2026-04-26 20:25 37.22770 -5.93104 6347 ft 287 kts 282°
2026-04-26 20:25 37.23041 -5.94724 6146 ft 286 kts 282°
2026-04-26 20:25 37.23586 -5.97987 5754 ft 285 kts 282°
2026-04-26 20:25 37.23990 -6.00412 5467 ft 284 kts 282°
2026-04-26 20:26 37.24392 -6.02822 5240 ft 279 kts 282°
2026-04-26 20:26 37.24779 -6.05157 5186 ft 267 kts 282°
2026-04-26 20:26 37.25278 -6.07327 5043 ft 252 kts 300°
2026-04-26 20:26 37.26435 -6.08885 4780 ft 242 kts 330°
2026-04-26 20:27 37.27952 -6.09684 4421 ft 234 kts 351°
2026-04-26 20:27 37.29542 -6.09988 3919 ft 232 kts 356°
2026-04-26 20:27 37.31161 -6.10205 3361 ft 234 kts 356°
2026-04-26 20:27 37.32779 -6.10425 2876 ft 233 kts 355°
2026-04-26 20:28 37.34355 -6.10651 2677 ft 219 kts 354°
2026-04-26 20:28 37.35826 -6.10870 2545 ft 209 kts 354°
2026-04-26 20:28 37.37208 -6.11078 2478 ft 196 kts 355°
2026-04-26 20:28 37.38572 -6.11284 2516 ft 195 kts 355°
2026-04-26 20:29 37.39918 -6.11415 2481 ft 191 kts
2026-04-26 20:29 37.40961 -6.10700 2468 ft 169 kts 60°
2026-04-26 20:29 37.41314 -6.09322 2530 ft 166 kts 78°
2026-04-26 20:29 37.41512 -6.07915 2525 ft 164 kts 82°
2026-04-26 20:30 37.41653 -6.06473 2422 ft 167 kts 83°
2026-04-26 20:30 37.41732 -6.05020 2211 ft 166 kts 88°
2026-04-26 20:30 37.41751 -6.03587 2002 ft 162 kts 90°
2026-04-26 20:30 37.41757 -6.02172 1795 ft 160 kts 91°
2026-04-26 20:31 37.41760 -6.00821 1577 ft 149 kts 91°
2026-04-26 20:31 37.41762 -5.99534 1395 ft 146 kts 91°
2026-04-26 20:31 37.41766 -5.98269 1198 ft 145 kts 91°
2026-04-26 20:31 37.41769 -5.96996 1016 ft 146 kts 91°
2026-04-26 20:32 37.41772 -5.95721 848 ft 147 kts 91°
2026-04-26 20:32 37.41775 -5.94439 637 ft 146 kts 91°
2026-04-26 20:32 37.41776 -5.93165 439 ft 145 kts 89°
2026-04-26 20:32 37.41780 -5.91896 238 ft 146 kts 90°
2026-04-26 20:33 37.41790 -5.90643 95 ft 137 kts 89°
2026-04-26 20:33 37.41794 -5.89714 97 ft 75 kts 90°
2026-04-26 20:33 37.41795 -5.89335 99 ft 27 kts 90°
2026-04-26 20:33 37.41856 -5.89266 98 ft 16 kts 338°
2026-04-26 20:34 37.41933 -5.89322 98 ft 11 kts 329°
2026-04-26 20:34 37.41959 -5.89341 98 ft 0 kts 329°
2026-04-26 20:35 37.41961 -5.89343 98 ft 2 kts 329°
2026-04-26 20:35 37.42006 -5.89387 98 ft 14 kts 316°
2026-04-26 20:35 37.42080 -5.89482 97 ft 16 kts 314°
2026-04-26 20:35 37.42158 -5.89581 95 ft 16 kts 312°
2026-04-26 20:36 37.42138 -5.89677 94 ft 13 kts 225°
2026-04-26 20:36 37.42076 -5.89756 94 ft 13 kts 225°
2026-04-26 20:36 37.42013 -5.89834 95 ft 13 kts 224°
2026-04-26 20:36 37.42036 -5.89907 94 ft 0 kts 342°
2026-04-26 20:37 37.42041 -5.89909 94 ft 1 kts 342°
2026-04-26 20:37 37.42053 -5.89914 93 ft 2 kts 342°
2026-04-26 20:37 37.42072 -5.89921 95 ft 3 kts 342°
2026-04-26 20:37 37.42097 -5.89930 94 ft 4 kts 351°
2026-04-26 20:38 37.42124 -5.89926 93 ft 4 kts
2026-04-26 20:38 37.42163 -5.89955 93 ft 7 kts 315°
2026-04-26 20:38 37.42184 -5.89981 93 ft 1 kts 315°